Terminal Aerodrome Forecast
Issued by NWS

Home | Current Version | Previous Version | Text Only | Print | Product List | Glossary On
Versions: 1 2 3 4 5 6 7 8 9 10 11 12 13 14 15 16 17 18 19 20 21 22 23 24 25 26 27 28 29 30
000
FTUS43 KDTX 152300
TAFYIP
TAF
KYIP 152321Z 1600/1624 25006KT P6SM -SHRA SCT030 OVC080
      TEMPO 1601/1604 BKN030
     FM160400 30006KT 6SM BR SCT009 OVC015
     FM160800 34005KT P6SM SCT015
     FM161400 35007KT P6SM SCT025
     FM161600 31008KT P6SM BKN040
     FM162200 26006KT P6SM SCT050=

USA.gov is the U.S. government's official web portal to all federal, state and local government web resources and services.